This is the latest recevied weather packets stored in our database for station/object WZ9ZZZ-1. If no packets are shown the sender has not sent any weather packets the latest 10 day(s).
| Time | Temp. | Humidity | Pressure | Rain* | Wind** | Luminosity | Snow |
|---|---|---|---|---|---|---|---|
| 1777659739 | 17.22° C | 97% | 1012.6 hPa | 0 mm | - | 53 W/m² | - |
| 1777659436 | 17.22° C | 97% | 1012.9 hPa | 0 mm | - | 45 W/m² | - |
| 1777659134 | 17.22° C | 97% | 1012.7 hPa | 0 mm | - | 54 W/m² | - |
| 1777658832 | 17.22° C | 97% | 1012.7 hPa | 0 mm | - | 53 W/m² | - |
| 1777658527 | 17.78° C | 97% | 1012.9 hPa | 0 mm | - | 51 W/m² | - |
| 1777658224 | 17.22° C | 97% | 1013.1 hPa | 0 mm | - | 98 W/m² | - |
| 1777657921 | 17.22° C | 97% | 1013.1 hPa | 0 mm | - | 108 W/m² | - |
| 1777657617 | 17.22° C | 97% | 1013.3 hPa | 0 mm | - | 124 W/m² | - |
| 1777657315 | 17.22° C | 97% | 1013.5 hPa | 0 mm | - | 60 W/m² | - |
| 1777657012 | 17.22° C | 97% | 1014 hPa | 0 mm | - | 15 W/m² | - |
| 1777656709 | 17.78° C | 97% | 1013.6 hPa | 0 mm | - | 47 W/m² | - |
| 1777656405 | 17.78° C | 97% | 1013.4 hPa | 1.27 mm | - | 163 W/m² | - |
| 1777656100 | 17.22° C | 97% | 1013.7 hPa | 7.11 mm | - | 65 W/m² | - |
| 1777655796 | 17.22° C | 97% | 1013.8 hPa | 32.51 mm | - | 50 W/m² | - |
| 1777655493 | 17.22° C | 97% | 1013.2 hPa | 64.26 mm | - | 75 W/m² | - |
| 1777655191 | 17.22° C | 96% | 1013.4 hPa | 79.25 mm | - | 51 W/m² | - |
| 1777654887 | 17.22° C | 96% | 1014.6 hPa | 59.94 mm | - | 12 W/m² | - |
| 1777654585 | 17.22° C | 96% | 1015 hPa | 23.37 mm | - | 7 W/m² | - |
| 1777654282 | 17.78° C | 96% | 1014.7 hPa | 1.27 mm | - | 0 W/m² | - |
| 1777653980 | 17.22° C | 96% | 1013.3 hPa | 1.27 mm | - | 0 W/m² | - |
| 1777653677 | 17.78° C | 96% | 1012.6 hPa | 0 mm | - | 6 W/m² | - |
| 1777653373 | 17.22° C | 96% | 1012.9 hPa | 0 mm | - | 19 W/m² | - |
| 1777653070 | 17.22° C | 96% | 1013 hPa | 0 mm | - | 19 W/m² | - |
| 1777652766 | 17.78° C | 96% | 1013.9 hPa | 0 mm | - | 17 W/m² | - |
| 1777652463 | 17.22° C | 96% | 1013.7 hPa | 0 mm | - | 13 W/m² | - |
* Rain latest hour (hover to see other rain measurements)
** Current wind speed in m/s (hover to see current wind gust speed)